Regional Weather Roundup
Issued by NWS

Home | Current Version | Previous Version | Text Only | Print | Product List | Glossary Off
Versions: 1 2 3 4 5 6 7 8 9 10 11 12 13 14 15 16 17 18 19 20 21 22 23 24 25 26 27 28 29 30 31 32 33 34 35 36 37 38 39 40 41 42 43 44 45 46 47 48 49 50

000
ASUS43 KOAX 261510
RWRNE

WEATHER ROUNDUP FOR NEBRASKA
NATIONAL WEATHER SERVICE OMAHA NE
1000 AM CDT THU MAR 26 2015

NOTES: SATELLITE DATA IS BEING USED TO AUGMENT CLOUD COVER ABOVE
       12000 FEET.
       "FAIR" INDICATES FEW OR NO CLOUDS BELOW 12,000 FEET WITH NO
       SIGNIFICANT WEATHER AND/OR OBSTRUCTIONS TO VISIBILITY.

  * THESE STATIONS DO NOT REPORT WEATHER SUCH AS RAIN...SNOW OR FOG.

NEZ001>004-019>022-054>056-261600-
NEBRASKA PANHANDLE

CITY           SKY/WX    TMP DP  RH WIND       PRES   REMARKS
SCOTTSBLUFF    CLOUDY    35  28  75 W9        30.17R WCI  28
ALLIANCE       CLOUDY    45  29  53 NW16G23   30.11S
CHADRON        CLOUDY    42  28  57 NW12      30.13S
KIMBALL        CLOUDY    44  24  45 NW23G29   30.15S
SIDNEY         CLOUDY    44  26  49 NW14      30.15S
$$

NEZ057>060-069>072-079>082-261600-
SOUTHWEST NEBRASKA

CITY           SKY/WX    TMP DP  RH WIND       PRES   REMARKS
NORTH PLATTE   CLOUDY    37  25  61 S10       30.16F WCI  30
IMPERIAL         N/A     37  30  75 W10       30.16F WCI  30
LEXINGTON      PTSUNNY   33  26  76 CALM      30.19F
MCCOOK         PTSUNNY   33  26  75 SW3       30.19F
OGALLALA       CLOUDY    38  32  77 W14       30.15S WCI  30
$$

NEZ005>010-023>029-035>040-094-261600-
NORTH CENTRAL NEBRASKA

CITY           SKY/WX    TMP DP  RH WIND       PRES   REMARKS
VALENTINE      CLOUDY    30  23  75 CALM      30.10F
AINSWORTH      CLOUDY    35  26  71 S9        30.11F WCI  27
BROKEN BOW     CLOUDY    34  25  69 S3        30.17F
O`NEILL        MOSUNNY   34  26  72 S5        30.18F WCI  30
ORD            MOSUNNY   31  24  75 CALM      30.19F
THEDFORD       CLOUDY    38  25  58 SW8       30.13F WCI  32
$$

NEZ041-046>049-061>064-073>077-083>087-261600-
SOUTH CENTRAL NEBRASKA

CITY           SKY/WX    TMP DP  RH WIND       PRES   REMARKS
GRAND ISLAND   SUNNY     33  24  69 W3        30.23F
AURORA         SUNNY     34  27  75 CALM      30.22F
HASTINGS       SUNNY     36  25  64 NW3       30.22F
HEBRON         SUNNY     34  26  72 NW3       30.26F
HOLDREGE       MOSUNNY   39  25  56 SW7       30.21S WCI  34
KEARNEY *      MOSUNNY   37  21  52 W7        30.21F WCI  32
YORK           SUNNY     34  28  80 W5        30.24S WCI  30
$$

NEZ011>018-030>034-042>045-261600-
NORTHEAST NEBRASKA

CITY           SKY/WX    TMP DP  RH WIND       PRES   REMARKS
NORFOLK        SUNNY     34  25  69 W6        30.21F WCI  29
ALBION         SUNNY     32  25  73 CALM      30.21F
BLAIR          SUNNY     35  26  71 W6        30.22S WCI  29
COLUMBUS *     SUNNY     34  19  55 W6        30.25F WCI  29
FREMONT        SUNNY     35  28  76 W6        30.24S WCI  29
TEKAMAH        SUNNY     38  24  57 W16G28    30.23F WCI  29
WAYNE          SUNNY     36  25  64 NW8       30.22S WCI  30
$$

NEZ050>053-065>068-078-088>093-261600-
SOUTHEAST NEBRASKA

CITY           SKY/WX    TMP DP  RH WIND       PRES   REMARKS
LINCOLN        SUNNY     38  27  64 CALM      30.26S
OMAHA EPPLEY   MOSUNNY   37  26  64 NW6       30.24S WCI  32
BEATRICE       SUNNY     35  28  76 NW5       30.25S WCI  31
FALLS CITY     SUNNY     36  29  75 NW9       30.24S WCI  29
NEBRASKA CITY  SUNNY     37  27  68 NW7       30.24S WCI  31
PLATTSMOUTH    SUNNY     35  26  69 NW7       30.24R WCI  30
$$

NEZ044-045-051>053-067-261600-
OMAHA AREA

CITY           SKY/WX    TMP DP  RH WIND       PRES   REMARKS
OMAHA EPPLEY   MOSUNNY   37  26  64 NW6       30.24S WCI  32
BLAIR          SUNNY     35  26  71 W6        30.22S WCI  29
FREMONT        SUNNY     35  28  76 W6        30.24S WCI  29
MILLARD        SUNNY     37  26  63 N5        30.24S WCI  34
OFFUTT AFB     SUNNY     36  27  68 NW8       30.23S WCI  30
PLATTSMOUTH    SUNNY     35  26  69 NW7       30.24R WCI  30
WAHOO          FAIR      37  25  60 NW7       30.24S WCI  32
$$


USA.gov is the U.S. government's official web portal to all federal, state and local government web resources and services.